Location: Człuchów
(53.6645°N, 17.3592°E)
Time: 05:21:43
(UTC+02:00)

ISS - Visible Passes

Search period start: 28 May 2018 00:00
Search period end: 07 June 2018 00:00
Orbit: 402 x 407 km, 51.6° (Epoch: 28 May)

Date Brightness Start Highest point End Pass type
(mag) Time Alt. Az. Time Alt. Az. Time Alt. Az.
28 May -1.7 01:07:25 10° W 01:08:21 15° WSW 01:08:21 15° WSW visible
28 May -3.7 22:38:25 10° W 22:41:39 57° S 22:44:52 10° ESE visible
29 May -2.7 00:14:59 10° W 00:17:42 26° SSW 00:17:42 26° SSW visible
29 May -3.1 23:22:40 10° W 23:25:42 35° SSW 23:27:05 24° SSE visible
30 May -3.4 22:30:24 10° W 22:33:34 45° SSW 22:36:31 11° ESE visible
31 May -1.9 00:07:21 10° WSW 00:09:08 16° SW 00:09:08 16° SW visible
31 May -2.4 23:14:47 10° W 23:17:28 23° SSW 23:18:35 19° S visible
01 Jun -2.8 22:22:24 10° W 22:25:22 32° SSW 22:28:02 12° SE visible
02 Jun -1.7 23:07:14 10° WSW 23:09:06 14° SW 23:10:09 13° SSW visible
03 Jun -2.1 22:14:30 10° W 22:17:02 21° SSW 22:19:34 10° SSE visible
05 Jun -1.4 22:07:06 10° WSW 22:08:34 12° SW 22:10:02 10° SSW visible
